Showing default

S80/T, 22078

Orbit data source: Space-Track

S80/T, 22078 is a payload satellite owned by CNES (FR) in LEO that was launched on Mon, 10 Aug 1992 UTC via an ARIANE 42P launch vehicle from the French Guiana (FRGUI). Payload-class satellites include a variety of spacecraft equipped with specific instruments for various scientific and technological missions. These include communications satellites like Starlink; space stations such as the ISS; scientific satellites like the Hubble; Earth observation satellites from companies like Planet Labs, Umbra, and HawkEye 360; GPS; miniature CubeSats for education and research; and military/defense satellites.

Loading next visibility...
Identifier
22078, 1992-052C
Orbit
LEO
Country
Flag of FRFR
Related business
Manufacturer
SSTL/MMST
Mission
Civil Communications
Bus & Motor
UOSAT, Unknown motor
Mass
50 kg wet, 50 kg dry
Launch date (UTC)
1992-08-10 (33 years ago)
Launch vehicle
ARIANE 42P
Launch site
French Guiana (FRGUI)
Object type
Payload
Rocket body
Debris
Shape & HBR
Hex Poly, 0.3 m
Radar Cross Section
0.140 m², Medium (>0.1 m² and < 1m²)

Expand to show TLE details & history
Last TLE update: 14 hours ago

TLE from 14 hours ago
0 S80/T
1 22078U 92052C   26036.75631132 -.00000034  00000-0  11074-3 0  9996
2 22078  66.0839 183.9099 0013109 315.0467  44.9490 12.86849637573326
Epoch: 2026-02-05T18:09Z
TLE epoch observation values (Epoch: 2026-02-05T18:09:05.298Z)
Latitude
0.00005°
Longitude
135.73387°
Altitude
1,308.841 km
Speed
7.206 km/s
True Right ascension
12h 15m 38s
True Declination
0° 00' 00"
Sunlit
Object was in full shadow at epoch
Visualization orbit readout
Latitude
Unknown
Longitude
Unknown
Altitude
Unknown
Speed
Unknown
Apparent Right ascension
Unknown
Apparent Declination
Unknown
Sunlit
N/A
Visualization observer readout
Local Sidereal Time
10:31:35
Azimuth
Unknown
Elevation
Unknown
Doppler factor
Unknown
Orbital elements
Apogee altitude
1,322.688 km
Perigee altitude
1,302.524 km
Semi-major axis
7,690.743 km
Eccentricity
0.00131
Inclination
66.0839°
RAAN
183.9099°
Arg. of periapsis
315.0467°
True anomaly
45.05525°
Mean anomaly
44.949°
Eccentric anomaly
45.00211°
Mean motion
3.21803 °/min
Orbital period
111.87 mins
BSTAR
0.00011074
Loading maneuver chart data...
Computing Atmospheric mass density...
Loading historical data...
Loading historical data...
Loading historical data...
Loading historical data...
Loading historical data...
Loading historical data...
Loading historical data...

Documentation

Showing up to 5 results
|